Stations météo

réclame
Mon MeteoGroup
Grenoble/St.Geoirs, France (7486): Température de l'air & dewpoint: 19.06.2019 16:00:00 - 25.06.2019 16:00:00 (CEST)Grenoble/St.Geoirs, France (7486): Température de l'air 5cm: 19.06.2019 16:00:00 - 25.06.2019 16:00:00 (CEST)Grenoble/St.Geoirs, France (7486): Température de l'air -20cm & Température de l'air -100cm: 19.06.2019 16:00:00 - 25.06.2019 16:00:00 (CEST)Grenoble/St.Geoirs, France (7486): Vitesse du vent & gusts: 19.06.2019 16:00:00 - 25.06.2019 16:00:00 (CEST)Grenoble/St.Geoirs, France (7486): Direction du vent: 19.06.2019 16:00:00 - 25.06.2019 16:00:00 (CEST)Grenoble/St.Geoirs, France (7486): reduced air pressure: 19.06.2019 16:00:00 - 25.06.2019 16:00:00 (CEST)Grenoble/St.Geoirs, France (7486): visibility: 19.06.2019 16:00:00 - 25.06.2019 16:00:00 (CEST)Grenoble/St.Geoirs, France (7486): Ensoleillement: 19.06.2019 16:00:00 - 25.06.2019 16:00:00 (CEST)Grenoble/St.Geoirs, France (7486): Quantités de précipitations: 19.06.2019 16:00:00 - 25.06.2019 16:00:00 (CEST)
Date & Time tt [°C] td [°C] tt 5cm [°C] tt -20cm [°C] tt -100cm [°C] ff [km/h] ff [knt] fx [km/h] fx [knt] dd ppp [hPa] vv [km] sd [min] rr [mm]
25.06.2019 16:00:00 31,2 16,8 33,6 20,7 16,9 7 4 29 16 SSW 1017,4 31 55 0,0
25.06.2019 15:00:00 31,0 17,0 36,6 20,5 16,8 12 6 26 14 SSW 1017,6 46 60 0,0
25.06.2019 14:00:00 29,9 18,0 30,9 20,4 16,8 10 5 23 12 SE 1018,1 19 29 0,0
25.06.2019 13:00:00 28,8 16,4 29,6 20,4 16,8 8 4 21 12 SW 1018,4 51 36 0,0
25.06.2019 12:00:00 27,7 15,7 32,2 20,3 16,8 6 3 16 9 S 1018,6 38 53 0,0
25.06.2019 11:00:00 26,6 14,7 30,8 20,4 16,8 6 4 20 11 SSW 1019,0 20 53 0,0
25.06.2019 10:00:00 25,6 13,4 29,5 20,4 16,8 6 3 21 11 SSE 1019,1 60 60 0,0
25.06.2019 09:00:00 24,4 13,3 24,2 20,6 16,8 8 4 17 9 SE 1019,2 46 60 0,0
25.06.2019 08:00:00 22,0 13,6 17,3 20,7 16,8 9 5 19 10 E 1019,2 45 55 0,0
25.06.2019 07:00:00 17,9 12,6 13,9 20,8 16,8 10 5 14 8 E 1019,1 29 3 0,0
25.06.2019 06:00:00 16,2 11,8 14,0 20,9 16,8 11 6 21 11 E 1019,0 33 0 0,0
25.06.2019 05:00:00 16,4 12,0 13,7 20,9 16,7 10 5 16 9 ESE 1018,5 26 0 0,0
25.06.2019 04:00:00 16,2 12,7 14,0 21,0 16,7 10 5 15 8 ENE 1018,4 26 0 0,0
25.06.2019 03:00:00 17,6 12,5 14,3 21,2 16,7 7 4 18 10 E 1018,4 22 0 0,0
25.06.2019 02:00:00 19,6 12,4 16,0 21,2 16,7 3 2 19 10 NE 1018,1 36 0 0,0
25.06.2019 01:00:00 22,7 11,4 18,2 21,3 16,8 4 2 17 9 SE 1017,7 40 0 0,0
25.06.2019 00:00:00 23,4 13,0 18,9 21,3 16,7 5 3 16 9 SW 1017,4 41 0 0,0
24.06.2019 23:00:00 24,0 12,9 18,2 21,3 16,7 4 2 16 9 WSW 1016,9 42 0 0,0
24.06.2019 22:00:00 25,4 12,9 20,6 21,2 16,7 6 3 22 12 S 1016,2 2,7 0 0,0
24.06.2019 21:00:00 26,9 13,6 23,0 21,1 16,7 6 4 16 8 SSE 1015,3 45 0 0,0
24.06.2019 20:00:00 28,7 16,3 28,1 21,0 16,7 6 3 13 7 SSE 1014,9 41 14 0,0
24.06.2019 19:00:00 29,3 16,1 30,0 20,8 16,6 9 5 23 12 S 1014,6 42 23 0,0
24.06.2019 18:00:00 30,2 18,0 33,4 20,6 16,7 17 9 26 14 SSW 1014,5 42 60 0,0
24.06.2019 17:00:00 31,0 17,3 37,8 20,4 16,6 5 3 14 8 NNW 1014,3 23 60 0,0
24.06.2019 16:00:00 30,1 17,2 37,3 20,1 16,6 7 4 18 10 NE 1014,6 40 60 0,0
24.06.2019 15:00:00 29,7 15,8 37,0 20,0 16,6 8 4 18 10 S 1015,1 19 60 0,0
24.06.2019 14:00:00 28,5 16,7 32,1 19,9 16,6 5 3 17 9 S 1015,6 48 50 0,0
24.06.2019 13:00:00 27,6 14,2 33,2 19,8 16,6 9 5 20 11 SW 1016,2 28 60 0,0
24.06.2019 12:00:00 25,9 14,7 30,7 19,8 16,6 7 4 16 9 SW 1016,6 30 51 0,0
24.06.2019 11:00:00 24,4 15,9 29,3 19,8 16,6 4 2 10 5 WNW 1017,0 33 12 0,0
24.06.2019 10:00:00 24,3 16,6 27,0 19,9 16,6 4 2 19 10 NE 1016,6 36 60 0,0
24.06.2019 09:00:00 21,8 16,5 22,1 20,0 16,6 13 7 23 12 E 1016,6 18 60 0,0
24.06.2019 08:00:00 19,6 15,5 17,2 20,1 16,6 15 8 19 11 E 1016,9 17 60 0,0
24.06.2019 07:00:00 16,2 14,4 12,6 20,2 16,6 11 6 16 8 E 1017,4 12 43 0,0
24.06.2019 06:00:00 14,2 12,1 12,7 20,3 16,6 12 6 20 11 E 1017,9 26 0 0,2
24.06.2019 05:00:00 15,5 13,9 11,1 20,4 16,6 13 7 18 10 ENE 1017,8 22 0 0,0
24.06.2019 04:00:00 14,7 12,9 10,9 20,5 16,6 5 3 17 9 ESE 1017,7 31 0 0,0
24.06.2019 03:00:00 14,9 12,8 13,5 20,6 16,6 14 7 21 11 ENE 1017,8 32 0 0,0
24.06.2019 02:00:00 15,3 13,3 13,9 20,7 16,6 16 8 18 10 E 1017,8 28 0 0,0
24.06.2019 01:00:00 15,5 13,3 14,0 20,8 16,5 14 7 18 10 E 1017,7 26 0 0,0
24.06.2019 00:00:00 17,2 14,5 14,5 20,8 16,5 16 9 19 10 E 1017,2 22 0 0,0
23.06.2019 23:00:00 17,3 14,6 15,1 20,8 16,5 12 7 16 8 E 1016,9 29 0 0,0
23.06.2019 22:00:00 18,7 14,8 15,8 20,7 16,5 7 4 13 7 E 1016,2 34 3 0,0
23.06.2019 21:00:00 23,3 17,5 21,1 20,7 16,5 5 3 9 5 E 1014,8 46 57 0,0
23.06.2019 20:00:00 25,6 16,4 25,2 20,5 16,5 6 3 9 5 S 1014,2 48 0 0,0
23.06.2019 19:00:00 26,6 15,0 27,2 20,4 16,5 6 3 11 6 W 1013,7 60 0 0,0
23.06.2019 18:00:00 27,7 12,1 29,2 20,1 16,5 7 4 17 9 W 1013,4 48 15 0,0
23.06.2019 17:00:00 27,7 11,3 29,4 19,9 16,5 13 7 23 13 SW 1013,5 52 32 0,0
23.06.2019 16:00:00 28,3 14,5 32,6 19,7 16,5 8 5 24 13 SSE 1013,6 58 60 0,0
23.06.2019 15:00:00 27,3 15,0 32,2 19,5 16,5 13 7 24 13 SW 1014,0 20 60 0,0
23.06.2019 14:00:00 26,2 16,7 33,1 19,3 16,5 7 4 20 11 WSW 1014,2 19 60 0,0
23.06.2019 13:00:00 25,7 16,0 31,7 19,3 16,5 5 3 16 9 ESE 1014,3 52 60 0,0
23.06.2019 12:00:00 24,0 14,4 29,1 19,3 16,5 9 5 21 11 E 1014,6 25 60 0,0
23.06.2019 11:00:00 23,1 15,7 26,7 19,3 16,5 12 7 26 14 E 1014,6 25 60 0,0
23.06.2019 10:00:00 21,4 14,5 23,8 19,4 16,5 16 9 29 16 E 1014,8 21 60 0,0
23.06.2019 09:00:00 19,3 14,5 21,8 19,5 16,5 16 9 22 12 E 1015,3 20 60 0,0
23.06.2019 08:00:00 16,1 14,5 13,8 19,7 16,4 5 3 10 5 NNE 1016,0 18 60 0,0
23.06.2019 07:00:00 13,2 12,3 9,8 19,8 16,4 8 5 12 6 E 1016,5 9 43 0,0
23.06.2019 06:00:00 11,6 10,7 8,6 19,9 16,4 6 3 10 5 E 1016,9 5 0 0,0
23.06.2019 05:00:00 11,7 10,6 8,2 20,0 16,4 4 2 10 5 NE 1016,9 7 0 0,0
23.06.2019 04:00:00 12,3 11,2 9,4 20,1 16,4 5 3 11 6 E 1016,3 9 0 0,0
23.06.2019 03:00:00 12,5 11,2 9,8 20,2 16,4 8 5 12 6 E 1016,6 7 0 0,0
23.06.2019 02:00:00 13,6 12,3 10,1 20,3 16,4 3 2 8 4 WNW 1016,7 13 0 0,0
23.06.2019 01:00:00 14,6 12,3 12,2 20,4 16,4 8 5 16 8 ESE 1016,8 19 0 0,0
23.06.2019 00:00:00 16,4 12,9 12,9 20,4 16,4 4 2 11 6 E 1016,7 35 0 0,0
22.06.2019 23:00:00 17,7 13,0 14,5 20,4 16,4 7 4 19 10 ESE 1016,4 41 0 0,0
22.06.2019 22:00:00 18,9 13,3 15,0 20,3 16,4 5 3 17 9 NW 1015,8 33 0 0,0
22.06.2019 21:00:00 21,2 14,1 18,9 20,2 16,4 4 2 16 8 NW 1014,8 49 52 0,0
22.06.2019 20:00:00 22,4 14,0 25,0 20,1 16,4 11 6 21 12 NNE 1014,2 40 60 0,0
22.06.2019 19:00:00 23,1 14,4 28,2 20,0 16,4 14 8 24 13 N 1014,1 40 60 0,0
22.06.2019 18:00:00 23,0 14,0 25,1 19,8 16,3 11 6 26 14 N 1014,2 39 34 0,0
22.06.2019 17:00:00 23,8 13,9 29,0 19,6 16,3 12 7 21 12 NNE 1014,5 40 50 0,0
22.06.2019 16:00:00 23,5 14,8 27,6 19,5 16,3 8 4 20 11 NNW 1014,7 33 41 0,0
22.06.2019 15:00:00 22,6 14,9 28,3 19,4 16,3 9 5 21 11 NW 1015,3 18 41 0,0
22.06.2019 14:00:00 21,2 13,9 25,9 19,3 16,3 5 3 15 8 WSW 1016,0 13 50 0,0
22.06.2019 13:00:00 20,0 14,1 22,4 19,4 16,3 6 3 11 6 ESE 1016,6 24 20 0,0
22.06.2019 12:00:00 18,2 13,5 22,0 19,4 16,3 4 2 10 6 SSE 1016,9 28 0 0,0
22.06.2019 11:00:00 17,1 13,4 17,2 19,5 16,3 4 2 11 6 ENE 1016,9 25 0 0,2
22.06.2019 10:00:00 15,9 13,0 16,7 19,5 16,3 3 2 14 7 N 1017,3 29 0 0,0
22.06.2019 09:00:00 16,3 13,2 18,2 19,6 16,3 9 5 16 9 NW 1017,1 26 42 0,0
22.06.2019 08:00:00 15,6 13,3 14,3 19,6 16,3 6 3 14 7 N 1016,9 27 15 0,0
22.06.2019 07:00:00 14,7 13,1 13,8 19,7 16,3 7 4 14 8 NNE 1016,9 20 0 0,0
22.06.2019 06:00:00 15,0 12,9 13,9 19,8 16,3 4 2 13 7 WNW 1016,7 18 0 0,0
22.06.2019 05:00:00 15,6 12,9 14,6 19,8 16,3 9 5 26 14 NW 1016,8 39 0 0,0
22.06.2019 04:00:00 16,8 14,4 16,1 19,9 16,2 9 5 16 8 WNW 1016,3 21 0 0,0
22.06.2019 03:00:00 17,0 14,8 15,9 20,0 16,2 9 5 20 11 NE 1016,1 21 0 0,0
22.06.2019 02:00:00 17,1 15,3 16,3 20,0 16,2 4 2 19 10 SW 1016,6 16 0 1,0
22.06.2019 01:00:00 17,3 16,2 15,3 20,1 16,3 6 3 8 4 W 1016,5 11 0 0,0
22.06.2019 00:00:00 17,3 15,8 15,2 20,1 16,2 5 3 10 5 N 1016,3 16 0 0,0
21.06.2019 23:00:00 18,2 16,2 16,2 20,1 16,2 5 3 8 4 NE 1016,1 6 0 0,0
21.06.2019 22:00:00 19,0 16,8 18,0 20,1 16,2 5 3 8 4 NW 1016,1 29 0 0,0
21.06.2019 21:00:00 19,4 16,1 18,8 20,1 16,2 7 4 18 10 N 1015,5 28 0 0,0
21.06.2019 20:00:00 20,3 15,3 20,5 20,0 16,2 8 4 16 9 NE 1015,2 40 0 0,0
21.06.2019 19:00:00 20,8 14,7 21,5 20,0 16,2 5 3 31 17 E 1015,2 40 41 0,0
21.06.2019 18:00:00 20,3 14,9 22,0 19,9 16,2 18 10 41 22 N 1015,0 38 0 0,0
21.06.2019 17:00:00 20,9 15,2 21,5 19,8 16,2 22 12 39 21 NW 1015,1 48 0 0,0
21.06.2019 16:00:00 22,5 16,3 24,8 19,6 16,2 14 7 25 13 NNW 1014,9 31 2 0,0
21.06.2019 15:00:00 22,6 15,7 26,6 19,5 16,2 15 8 23 13 NW 1014,8 25 12 0,0
21.06.2019 14:00:00 22,7 15,3 27,8 19,4 16,2 15 8 24 13 NNW 1015,0 27 10 0,0
21.06.2019 13:00:00 22,9 15,0 27,1 19,3 16,2 12 7 23 13 NNW 1015,0 42 32 0,0
21.06.2019 12:00:00 22,2 14,3 27,0 19,2 16,1 13 7 23 12 N 1015,2 26 34 0,0
21.06.2019 11:00:00 22,1 15,0 27,6 19,3 16,2 10 5 17 9 N 1015,3 48 46 0,0
21.06.2019 10:00:00 20,7 15,0 24,3 19,3 16,1 6 3 14 8 E 1015,6 27 48 0,0
21.06.2019 09:00:00 18,4 14,9 18,2 19,5 16,1 4 2 11 6 N 1016,0 20 45 0,0
21.06.2019 08:00:00 16,4 14,9 15,1 19,5 16,1 5 3 8 4 SW 1015,9 20 38 0,0
21.06.2019 07:00:00 15,4 14,4 12,3 19,6 16,1 6 3 15 8 SW 1015,7 0,8 0 0,0
21.06.2019 06:00:00 15,1 13,8 12,4 19,7 16,1 2 1 6 3 N 1015,2 6 0 0,0
21.06.2019 05:00:00 16,1 15,0 14,3 19,7 16,1 5 3 8 4 ENE 1015,2 7 0 0,0
21.06.2019 04:00:00 16,9 15,8 15,8 19,8 16,1 5 3 8 5 S 1016,0 11 0 0,2
21.06.2019 03:00:00 16,9 15,6 15,9 19,9 16,1 4 2 10 6 NNE 1016,4 8 0 0,0
21.06.2019 02:00:00 17,3 15,6 16,0 19,9 16,0 7 4 10 5 W 1016,3 15 0 0,0
21.06.2019 01:00:00 17,9 15,7 16,7 20,0 16,1 3 2 14 8 SSW 1016,0 17 0 0,0
21.06.2019 00:00:00 18,1 15,5 16,5 20,0 16,1 7 4 11 6 SW 1015,9 23 0 0,0
20.06.2019 23:00:00 18,4 17,1 15,3 20,0 16,0 4 2 8 4 SSW 1015,3 11 0 0,0
20.06.2019 22:00:00 18,7 17,2 15,3 20,0 16,1 3 1 11 6 SE 1015,1 10 0 0,0
20.06.2019 21:00:00 19,8 17,2 19,2 19,9 16,0 10 5 15 8 W 1014,8 11 0 0,0
20.06.2019 20:00:00 20,6 18,0 21,0 19,8 16,0 8 4 16 9 SSE 1014,3 19 0 0,0
20.06.2019 19:00:00 21,4 17,8 22,7 19,7 16,0 4 2 12 6 S 1014,0 19 8 0,0
20.06.2019 18:00:00 20,2 18,1 18,7 19,6 16,1 8 4 23 13 NNW 1014,0 6 0 2,4
20.06.2019 17:00:00 21,1 17,1 19,4 19,3 16,0 9 5 21 11 W 1014,4 16 0 0,4
20.06.2019 16:00:00 24,5 14,9 28,0 19,2 16,0 7 4 25 13 N 1013,1 32 31 0,0
20.06.2019 15:00:00 25,5 16,1 32,9 19,0 16,0 7 4 17 9 NW 1013,0 39 52 0,0
20.06.2019 14:00:00 24,2 14,9 31,2 18,9 16,0 5 3 16 9 SSW 1013,8 33 60 0,0
20.06.2019 13:00:00 22,9 14,5 29,2 18,8 16,0 8 4 18 10 ENE 1014,3 20 60 0,0
20.06.2019 12:00:00 21,5 13,4 26,6 18,9 16,0 8 4 26 14 E 1014,5 20 60 0,0
20.06.2019 11:00:00 19,5 14,1 19,5 18,9 16,0 10 5 21 11 ENE 1014,9 26 17 0,0
20.06.2019 10:00:00 18,7 14,0 18,6 19,0 16,0 14 8 25 13 E 1015,1 26 18 0,0
20.06.2019 09:00:00 17,1 14,2 15,4 19,1 16,0 9 5 15 8 ENE 1015,3 23 0 0,0
20.06.2019 08:00:00 15,7 13,5 15,3 19,1 15,9 10 6 20 11 E 1015,5 15 0 0,0
20.06.2019 07:00:00 15,5 14,2 13,8 19,2 15,9 11 6 16 9 E 1014,9 10 0 0,0
20.06.2019 06:00:00 15,1 13,3 13,8 19,3 15,9 3 2 16 9 ESE 1014,6 13 0 0,0
20.06.2019 05:00:00 15,3 13,0 14,2 19,4 15,9 10 6 17 9 E 1014,2 19 0 0,2
20.06.2019 04:00:00 15,7 12,6 14,5 19,5 15,9 7 4 16 9 NE 1014,2 13 0 0,2
20.06.2019 03:00:00 15,9 11,9 12,3 19,6 15,9 9 5 12 6 E 1014,5 27 0 0,0
20.06.2019 02:00:00 15,6 11,0 13,3 19,6 15,9 11 6 18 10 E 1014,8 28 0 0,0
20.06.2019 01:00:00 17,7 11,7 16,2 19,7 15,9 6 3 12 7 ENE 1014,5 37 0 0,0
20.06.2019 00:00:00 19,6 10,0 15,9 19,8 15,9 9 5 21 11 W 1013,8 43 0 0,0
19.06.2019 23:00:00 19,8 9,4 16,6 19,8 15,9 8 5 35 19 W 1013,7 44 0 0,0
19.06.2019 22:00:00 21,4 8,6 18,1 19,8 15,9 11 6 35 19 WSW 1012,5 43 0 0,0
19.06.2019 21:00:00 22,4 8,5 19,2 19,8 15,9 18 10 34 19 WNW 1011,8 43 0 0,0
19.06.2019 20:00:00 23,2 9,2 21,7 19,7 15,9 12 6 25 14 W 1011,2 42 2 0,0
19.06.2019 19:00:00 25,9 10,1 25,6 19,5 15,8 10 6 48 26 W 1010,3 20 34 0,0
19.06.2019 18:00:00 26,9 10,6 25,0 19,4 15,8 23 12 40 21 SW 1009,9 30 34 0,0
19.06.2019 17:00:00 25,6 11,0 26,4 19,2 15,8 17 9 35 19 WSW 1010,6 19 29 0,0
19.06.2019 16:00:00 27,2 11,2 29,1 19,1 15,8 20 11 41 22 SSW 1010,4 21 56 0,0

tt = Température de l'air
td = dewpoint
tt 5cm = Température de l'air 5cm
tt -20cm = Température de l'air -20cm
tt -100cm = Température de l'air -100cm
ff = Vitesse du vent
fx = gusts
dd = Direction du vent
ppp = reduced air pressure
vv = visibility
sd = Ensoleillement
rr = Quantités de précipitations

stations d'obs. à proximité